Weather History for KGCD - July, 2013

Change the Weather History Date:

Tuesday, July 30, 2013

  Actual Average (KBNO) Record (KBNO)
Temperature  
Mean Temperature 74 °F 68 °F  
Max Temperature 90 °F 88 °F 103 °F (2003)
Min Temperature 58 °F 48 °F 30 °F (1995)
Degree Days  
Heating Degree Days 0 1  
Month to date heating degree days 56  
Since 1 June heating degree days 274  
Since 1 July heating degree days 56  
Cooling Degree Days 8 4  
Month to date cooling degree days 102  
Year to date cooling degree days 125  
Since 1 June cooling degree days 122  
Growing Degree Days 24 (Base 50)    
Moisture  
Dew Point 29 °F    
Average Humidity 21    
Maximum Humidity 37    
Minimum Humidity 8    
Precipitation  
Precipitation 0.00 in 0.02 in 0.16 in (1964)
Month to date precipitation 0.39  
Year to date precipitation 6.61  
Sea Level Pressure  
Sea Level Pressure 30.10 in    
Wind  
Wind Speed 4 mph (West)    
Max Wind Speed 12 mph    
Max Gust Speed 16 mph    
Visibility 10 miles    
Events      
T = Trace of Precipitation, MM = Missing Value Source: NWS Daily Summary

Daily Weather History Graph

Daily Weather History Graph

Search for Another Location

Airport or City:

Trip Planner

Search our weather history database for the weather conditions in past years. The results will help you decide how hot, cold, wet, or windy it might be!

Date:

Astronomy

Jul. 30, 2013 Rise Set
Actual Time 5:41 AM PDT 8:22 PM PDT
Civil Twilight 5:07 AM PDT 8:56 PM PDT
Nautical Twilight 4:25 AM PDT 9:38 PM PDT
Astronomical Twilight 3:36 AM PDT 10:26 PM PDT
Moon 12:03 AM PDT (7/30) 2:46 PM PDT (7/30)
Length of Visible Light 15h 48m
Length of Day
14h 41m
Last Quarter, 40% of the Moon is Illuminated
Jul 30
Last Quarter
Aug 6
New
Aug 14
First Quarter
Aug 20
Full
Aug 28
Last Quarter

Hourly Weather History & Observations

Time (PDT) Temp. Dew Point Humidity Pressure Visibility Wind Dir Wind Speed Gust Speed Precip Events Conditions
12:15 AM 69.6 °F 32.5 °F 25% 30.03 in 10.0 mi SSW 3.5 mph - N/A   Clear
12:35 AM 68.9 °F 32.9 °F 26% 30.04 in 10.0 mi SW 3.5 mph - N/A   Clear
12:55 AM 69.1 °F 32.9 °F 26% 30.04 in 10.0 mi WSW 5.8 mph - N/A   Clear
1:15 AM 68.5 °F 32.9 °F 27% 30.04 in 10.0 mi SW 4.6 mph - N/A   Clear
1:35 AM 67.1 °F 32.9 °F 28% 30.04 in 10.0 mi WSW 3.5 mph - N/A   Clear
1:55 AM 67.1 °F 32.9 °F 28% 30.04 in 10.0 mi Calm Calm - N/A   Clear
2:15 AM 65.7 °F 32.9 °F 30% 30.05 in 10.0 mi SW 4.6 mph - N/A   Clear
2:35 AM 65.7 °F 32.9 °F 30% 30.05 in 10.0 mi SW 4.6 mph - N/A   Clear
2:55 AM 64.6 °F 32.2 °F 30% 30.06 in 10.0 mi WSW 5.8 mph - N/A   Clear
3:15 AM 64.6 °F 32.2 °F 30% 30.06 in 10.0 mi Calm Calm - N/A   Clear
3:35 AM 63.3 °F 32.0 °F 31% 30.06 in 10.0 mi SW 3.5 mph - N/A   Clear
3:55 AM 63.9 °F 31.1 °F 29% 30.07 in 10.0 mi SSW 6.9 mph - N/A   Clear
4:15 AM 62.2 °F 31.1 °F 31% 30.08 in 10.0 mi SW 4.6 mph - N/A   Clear
4:35 AM 61.3 °F 30.7 °F 32% 30.09 in 10.0 mi SW 5.8 mph - N/A   Clear
4:55 AM 61.9 °F 30.2 °F 30% 30.09 in 10.0 mi SW 4.6 mph - N/A   Clear
5:15 AM 61.7 °F 30.2 °F 30% 30.10 in 10.0 mi SW 4.6 mph - N/A   Clear
5:35 AM 61.7 °F 30.6 °F 31% 30.10 in 10.0 mi SW 3.5 mph - N/A   Clear
5:55 AM 61.2 °F 30.6 °F 32% 30.11 in 10.0 mi SW 3.5 mph - N/A   Clear
6:15 AM 61.3 °F 30.6 °F 31% 30.12 in 10.0 mi SW 3.5 mph - N/A   Clear
6:35 AM 61.7 °F 30.7 °F 31% 30.13 in 10.0 mi Calm Calm - N/A   Clear
6:55 AM 58.8 °F 32.7 °F 37% 30.14 in 10.0 mi Calm Calm - N/A   Clear
7:15 AM 60.6 °F 33.6 °F 36% 30.14 in 10.0 mi East 4.6 mph - N/A   Clear
7:35 AM 59.5 °F 33.1 °F 37% 30.15 in 10.0 mi ESE 9.2 mph - N/A   Clear
7:55 AM 61.5 °F 33.6 °F 35% 30.15 in 10.0 mi East 8.1 mph - N/A   Clear
8:15 AM 64.8 °F 33.6 °F 31% 30.15 in 10.0 mi East 4.6 mph - N/A   Clear
8:35 AM 66.2 °F 33.6 °F 30% 30.15 in 10.0 mi East 4.6 mph - N/A   Clear
8:55 AM 68.0 °F 33.4 °F 28% 30.15 in 10.0 mi Calm Calm - N/A   Clear
9:15 AM 70.3 °F 32.4 °F 25% 30.15 in 10.0 mi SW 3.5 mph - N/A   Clear
9:55 AM 71.6 °F 31.8 °F 23% 30.15 in 10.0 mi West 4.6 mph - N/A   Clear
10:15 AM 73.8 °F 32.0 °F 22% 30.16 in 10.0 mi NW 5.8 mph - N/A   Clear
10:35 AM 74.7 °F 31.5 °F 20% 30.16 in 10.0 mi WNW 3.5 mph - N/A   Clear
11:15 AM 77.9 °F 31.8 °F 19% 30.15 in 10.0 mi NW 6.9 mph - N/A   Clear
11:35 AM 77.7 °F 30.9 °F 18% 30.15 in 10.0 mi NW 6.9 mph - N/A   Clear
11:55 AM 77.7 °F 30.2 °F 18% 30.16 in 10.0 mi WNW 5.8 mph - N/A   Clear
12:15 PM 80.2 °F 29.5 °F 16% 30.15 in 10.0 mi WNW 3.5 mph - N/A   Clear
12:35 PM 80.8 °F 29.8 °F 16% 30.14 in 10.0 mi WSW 4.6 mph - N/A   Clear
12:55 PM 81.7 °F 28.4 °F 14% 30.14 in 10.0 mi South 3.5 mph - N/A   Clear
1:15 PM 82.2 °F 28.4 °F 14% 30.14 in 10.0 mi WNW 3.5 mph - N/A   Clear
1:35 PM 84.6 °F 27.1 °F 12% 30.14 in 10.0 mi North 3.5 mph - N/A   Clear
1:55 PM 84.4 °F 26.1 °F 12% 30.13 in 10.0 mi North 4.6 mph - N/A   Clear
2:15 PM 82.6 °F 27.0 °F 13% 30.12 in 10.0 mi WNW 11.5 mph - N/A   Clear
2:35 PM 86.7 °F 26.2 °F 11% 30.12 in 10.0 mi WNW 4.6 mph - N/A   Clear
2:55 PM 87.3 °F 26.4 °F 11% 30.11 in 10.0 mi North 5.8 mph - N/A   Clear
3:15 PM 88.9 °F 25.9 °F 10% 30.10 in 10.0 mi West 9.2 mph - N/A   Clear
3:35 PM 88.9 °F 25.7 °F 10% 30.10 in 10.0 mi NNW 8.1 mph - N/A   Clear
3:55 PM 89.4 °F 24.3 °F 9% 30.09 in 10.0 mi NNW 9.2 mph - N/A   Clear
4:15 PM 89.6 °F 23.4 °F 9% 30.08 in 10.0 mi NW 9.2 mph 16.1 mph N/A   Clear
4:35 PM 89.2 °F 22.5 °F 9% 30.08 in 10.0 mi NW 9.2 mph - N/A   Clear
4:55 PM 88.7 °F 21.6 °F 9% 30.08 in 10.0 mi WNW 9.2 mph - N/A   Clear
5:15 PM 88.7 °F 20.8 °F 8% 30.08 in 10.0 mi NW 10.4 mph - N/A   Clear
5:35 PM 87.4 °F 20.3 °F 9% 30.07 in 10.0 mi NW 5.8 mph - N/A   Clear
5:55 PM 88.3 °F 20.5 °F 8% 30.07 in 10.0 mi NNW 5.8 mph - N/A   Clear
6:15 PM 87.1 °F 20.3 °F 9% 30.07 in 10.0 mi Calm Calm - N/A   Clear
6:35 PM 86.4 °F 21.0 °F 9% 30.07 in 10.0 mi Calm Calm - N/A   Clear
6:55 PM 85.6 °F 21.6 °F 10% 30.07 in 10.0 mi Calm Calm - N/A   Clear
7:15 PM 84.4 °F 24.4 °F 11% 30.07 in 10.0 mi Calm Calm - N/A   Clear
7:35 PM 83.3 °F 23.0 °F 11% 30.08 in 10.0 mi WNW 3.5 mph - N/A   Clear
7:55 PM 81.9 °F 24.1 °F 12% 30.09 in 10.0 mi West 3.5 mph - N/A   Scattered Clouds
8:15 PM 81.5 °F 23.9 °F 12% 30.09 in 10.0 mi NW 9.2 mph - N/A   Scattered Clouds
8:35 PM 79.3 °F 26.6 °F 14% 30.08 in 10.0 mi NW 5.8 mph - N/A   Clear
8:55 PM 78.8 °F 25.5 °F 14% 30.09 in 10.0 mi ESE 3.5 mph - N/A   Clear
9:15 PM 81.1 °F 24.3 °F 12% 30.10 in 10.0 mi NNE 4.6 mph - N/A   Clear
9:35 PM 78.1 °F 25.5 °F 14% 30.10 in 10.0 mi ENE 4.6 mph - N/A   Clear
9:55 PM 76.3 °F 25.7 °F 15% 30.11 in 10.0 mi East 3.5 mph - N/A   Clear
10:15 PM 73.2 °F 32.2 °F 22% 30.12 in 10.0 mi North 6.9 mph - N/A   Clear
10:35 PM 72.1 °F 34.3 °F 25% 30.12 in 10.0 mi NW 4.6 mph - N/A   Clear
10:55 PM 72.0 °F 35.6 °F 26% 30.12 in 10.0 mi NW 5.8 mph - N/A   Clear
11:15 PM 71.2 °F 35.8 °F 27% 30.13 in 10.0 mi WNW 8.1 mph - N/A   Clear
11:35 PM 69.6 °F 35.4 °F 28% 30.13 in 10.0 mi SW 3.5 mph - N/A   Clear
11:55 PM 70.0 °F 34.0 °F 27% 30.14 in 10.0 mi SW 5.8 mph - N/A   Clear